Regional Weather Roundup
Issued by NWS Mt. Holly, NJ

Home | Current Version | Previous Version | Text Only | Print | Product List | Glossary On
Versions: 1 2 3 4 5 6 7 8 9 10 11 12 13 14 15 16 17 18 19 20 21 22 23 24 25 26 27
000
ASUS41 KPHI 192012
RWRPHI

REGIONAL WEATHER ROUNDUP
NATIONAL WEATHER SERVICE MOUNT HOLLY NJ
400 PM EDT THU OCT 19 2017

NOTE:  "FAIR" INDICATES FEW OR NO CLOUDS BELOW 12,000 FEET WITH NO
SIGNIFICANT WEATHER AND/OR OBSTRUCTIONS TO VISIBILITY.

 * = STATION DOES NOT REPORT PRECIPITATION (E.G. RAIN, SNOW, ETC.)
        OR FOG.

NJZ015>026-192100-
SOUTHERN NEW JERSEY

CITY           SKY/WX    TMP DP  RH WIND       PRES   REMARKS
POMONA         FAIR      70  50  49 SW10      30.15F
WILDWOOD*      FAIR      71  52  50 S8        30.17F
MILLVILLE      FAIR      71  51  49 SW6       30.16F
WRIGHTSTOWN    FAIR      71  43  37 W10       30.11F
MOUNT HOLLY    FAIR      70  44  39 VRB6      30.13F
TRENTON        FAIR      71  46  40 SW10      30.12F

$$
NJZ001>014-192100-
NORTHERN NEW JERSEY

CITY           SKY/WX    TMP DP  RH WIND       PRES   REMARKS
SUSSEX         FAIR      71  44  37 SW8       30.08F
ANDOVER*         N/A     70  44  39 S6        30.10F
MORRISTOWN     MOSUNNY   72  41  33 W7G14     30.11F
NEWARK         FAIR      73  39  29 SW13      30.11F
TETERBORO      FAIR      74  38  27 SW10      30.09F
CALDWELL       FAIR      71  42  35 VRB7      30.10F
SOMERVILLE     FAIR      72  44  36 VRB5      30.09F
ALLAIRE*       FAIR      71  45  39 SW7       30.14F
TOMS RIVER*      N/A     71  44  37 SW12      30.14F

$$
PAZ043-044-047-054-055-060>062-066>071-192100-
EASTERN PENNSYLVANIA

CITY           SKY/WX    TMP DP  RH WIND       PRES   REMARKS
PHILADELPHIA   FAIR      71  44  37 SW14      30.14F
NORTH PHILA    FAIR      72  44  36 SW9       30.15F
BLUE BELL*     FAIR      70  45  40 SW8       30.14F
DOYLESTOWN     FAIR      71  43  36 SW9       30.12F
QUAKERTOWN*    FAIR      72  46  40 SW8       30.13F
PERKASIE*      FAIR      68  45  42 SW7G17    30.13F
POTTSTOWN      FAIR      70  45  40 S7        30.14F
LANCASTER      FAIR      72  46  39 SW10      30.12F
COATESVILLE    FAIR      68  46  45 S8        30.15F
READING        FAIR      72  47  40 SW10      30.11F
ALLENTOWN      FAIR      72  46  39 SW10      30.11F
MOUNT POCONO   FAIR      66  42  41 SW12      30.12S
HAZLETON       FAIR      72  34  25 SW7       30.15S
LEHIGHTON      FAIR      72  39  30 SW6       30.11F
WILKES BARRE   FAIR      72  42  34 W15G21    30.09F

$$
DEZALL-MDZ008-012-015-019-020-192100-
DELAWARE AND EASTERN MARYLAND

CITY           SKY/WX    TMP DP  RH WIND       PRES   REMARKS
WILMINGTON     FAIR      71  45  39 SW10      30.15F
DOVER          MOSUNNY   72  44  37 SW12      30.15F
GEORGETOWN     FAIR      72  45  37 SW7       30.18F
EASTON         SUNNY     70  45  40 SW9       30.22F
PATUXENT       FAIR      72  47  40 SW6       30.18F
OCEAN CITY     FAIR      69  57  65 S8        30.19F
WALLOPS ISLAND FAIR      71  54  54 MISG      30.20F
CAMBRIDGE      SUNNY     70  50  49 VRB6      30.19F
SALISBURY      FAIR      71  49  45 VRB7      30.18F

$$
PAZ001-021-NYZ056-072-MDZ011-DCZ001-192100-
OTHER NEARBY LOCATIONS

CITY           SKY/WX    TMP DP  RH WIND       PRES   REMARKS
HARRISBURG     FAIR      73  47  39 W6        30.12F
STATE COLLEGE  SUNNY     72  43  35 W16       30.13S
WILLIAMSPORT   FAIR      72  50  45 VRB3      30.07F
BINGHAMTON     FAIR      67  40  37 SW15G24   30.05F
NEW YORK CITY  FAIR      70  42  36 VRB3      30.13F
BALTIMORE      FAIR      72  46  39 S5        30.15F
WASHINGTON DC  FAIR      71  51  49 S10       30.17F

$$




USA.gov is the U.S. government's official web portal to all federal, state and local government web resources and services.